SCP
0 0 0 0 0 0 0 0 0 0 0 0 0 0 0 0 0 0 0 0 0 0 0 0 0 0 0 0 0 0 0 0 0 0 0 0 0 0
0 0 0 0 0 0 0 0 0 0 0 0 0 0 0 0 0 0 0 0 0 0 0 0 0 0 0 0 0 0 0 0 0 0 0 0 0 0
0 0 0 0 0 0 0 0 0 0 0 0 0 0 0 0 0 0 0 0 0 0 0 0 0 0 0 0 0 0 0 0 0 0 0 0 0 0
0 0 0 0 0 0 0 0 0 0 0 0 0 0 0 0 0 0 0 0 0 0 0 0 0 0 0 0 0 0 0 0 0 0 0 0 0 0
0 0 0 0 0 0 0 0 0 0 0 0 0 0 0 0 0 0 0 0 0 0 0 0 0 0 0 0 0 0 0 0 0 0 0 0 0 0
0 0 0 0 0 0 0 0 0 0 0 0 0 0 0 0 0 0 0 0 0 0 0 0 0 0 0 0 0 0 0 0 0 0 0 0 0 0
0 0 0 0 0 0 0 0 0 0 0 0 0 0 0 0 0 0 0 0 0 0 0 0 0 0 0 0 0 0 0 0 0 0 0 0 0 0
0 0 0 0 0 0 0 0 0 0 0 0 0 0 0 0 0 0 0 0 0 0 0 0 0 0 0 0 0 0 0 0 0 0 0 0 0 0
0 0 0 0 0 0 0 0 0 0 0 0 0 0 0 0 0 0 0 0 0 0 0 0 0 0 0 0 0 0 0 0 0 0 0 0 0 0
0 0 0 0 0 0 0 0 0 0 0 0 0 0 0 0 0 0 0 0 0 0 0 0 0 0 0 0 0 0 0 0 0 0 0 0 0 0
0 0 0 0 0 0 0 0 0 0 0 0 0 0 0 0 0 0 0 0 0 0 0 0 0 0 0 0 0 0 0 0 0 0 0 0 0 0
0 0 0 0 0 0 0 0 0 0 0 0 0 0 0 0 0 0 0 0 0 0 0 0 0 0 0 0 0 0 0 0 0 0 0 0 0 0
0 0 0 0 0 0 0 0 0 0 0 0 0 0 0 0 0 0 0 0 0 0 0 0 0 0 0 0 0 0 0 0 0 0 0 0 0 0
0 0 0 0 0 0 0 0 0 0 0 0 0 0 0 0 0 0 0 0 0 0 0 0 0 0 0 0 0 0 0 0 0 0 0 0 0 0
0 0 0 0 0 0 0 0 0 0 0 0 0 0 0 0 0 0 0 0 0 0 0 0 0 0 0 0 0 0 0 0 0 0 0 0 0 0
0 0 0 0 0 0 0 0 0 0 0 0 0 0 0 0 0 0 0 0 0 0 0 0 0 0 0 0 0 0 0 0 0 0 0 0 0 0
0 0 0 0 0 0 0 0 0 0 0 0 0 0 0 0 0 0 0 0 0 0 0 0 0 0 0 0 0 0 0 0 0 0 0 0 0 0
0 0 0 0 0 0 0 0 0 0 0 0 0 0 0 0 0 0 0 0 0 0 0 0 0 0 0 0 0 0 0 0 0 0 0 0 0 0
0 0 0 0 0 0 0 0 0 0 0 0 0 0 0 0 0 0 0 0 0 0 0 0 0 0 0 0 0 0 0 0 0 0 0 0 0 0
0 0 0 0 0 0 0 0 0 0 0 0 0 0 0 0 0 0 0 0 0 0 0 0 0 0 0 0 0 0 0 0 0 0 0 0 0 0
0 0 0 0 0 0 0 0 0 0 0 0 0 0 0 0 0 0 0 0 0 0 0 0 0 0 0 0 0 0 0 0 0 0 0 0 0 0
0 0 0 0 0 0 0 0 0 0 0 0 0 0 0 0 0 0 0 0 0 0 0 0 0 0 0 0 0 0 0 0 0 0 0 0 0 0
0 0 0 0 0 0 0 0 0 0 0 0 0 0 0 0 0 0 0 0 0 0 0 0 0 0 0 0 0 0 0 0 0 0 0 0 0 0
Wind_Speed
3 4 4 3 3 3 2 2 3 4 4 3 2 2 2 2 4 4 4 7 10 12 12 13 13 13 12 12 11 11 11 10 10 11 11 12 13 13
3 3 3 3 3 3 2 2 2 3 4 3 2 2 2 3 3 3 4 7 10 12 13 13 13 13 13 12 12 12 12 11 11 11 12 12 14 14
3 3 3 3 3 3 2 2 2 2 4 4 3 3 3 3 2 3 3 4 5 10 11 12 12 13 13 13 13 13 13 13 13 13 12 13 14 14
3 3 3 3 3 2 2 3 2 3 3 4 4 4 4 3 3 3 4 4 4 8 11 13 13 13 14 13 13 13 13 13 13 13 13 13 13 14
3 3 3 3 3 3 3 3 3 3 3 4 4 3 3 3 3 4 5 3 5 6 8 10 12 13 13 13 13 13 13 13 13 13 13 13 12 13
3 3 4 3 3 3 3 3 3 3 3 3 4 4 3 3 2 3 4 3 4 5 4 6 9 12 12 13 14 14 14 13 13 12 12 12 12 12
4 3 3 3 3 2 3 2 3 3 3 3 4 3 3 2 3 2 4 4 4 3 3 4 4 4 6 10 12 14 14 14 14 13 13 12 12 12
3 3 3 2 2 4 5 6 6 5 4 4 4 4 4 3 3 3 3 3 4 3 2 4 3 4 4 5 9 13 14 14 14 13 13 13 12 12
3 3 4 4 3 2 4 5 6 7 6 4 5 5 4 4 3 4 4 5 5 4 3 4 3 3 4 4 8 11 12 12 13 13 13 12 12 11
3 3 2 1 3 3 4 3 3 4 5 4 4 5 5 4 4 4 5 5 5 4 3 4 3 3 3 2 6 10 11 11 12 12 12 12 12 11
3 2 1 1 1 3 3 3 4 5 6 6 6 6 7 8 5 3 4 4 4 4 2 3 3 3 3 2 2 5 8 9 10 11 12 12 12 10
2 1 1 1 2 3 2 3 4 5 5 5 4 5 6 7 7 5 4 3 4 4 2 2 2 2 3 2 1 1 3 5 7 8 10 11 10 6
3 1 1 1 2 4 4 3 5 5 5 5 4 4 4 3 3 3 3 3 4 4 3 2 2 2 2 2 2 2 2 2 2 4 6 9 10 9
3 2 2 2 4 6 4 5 6 5 4 4 3 3 3 3 3 2 3 3 4 5 5 3 3 3 2 2 2 2 1 1 2 2 3 5 7 9
3 5 6 6 6 4 5 6 5 3 3 3 3 3 3 3 2 2 2 3 3 5 5 4 3 3 3 3 2 2 1 1 2 2 2 3 3 4
4 5 6 6 5 4 4 3 3 3 3 3 3 3 3 3 2 2 2 2 2 3 3 3 3 3 3 3 2 2 2 2 1 1 1 2 2 3
4 3 3 2 2 2 2 2 2 2 2 3 3 3 3 3 2 2 2 2 2 3 2 2 2 2 2 2 2 2 2 2 2 2 2 1 2 2
2 3 3 3 3 3 3 3 2 2 2 2 2 3 3 3 2 2 1 1 2 2 2 1 1 0 1 1 2 2 2 2 2 2 1 2 1 1
1 3 3 3 2 3 3 3 3 3 2 3 3 3 3 3 3 2 2 2 2 2 2 2 1 1 1 2 2 2 2 2 1 2 2 2 2 1
2 2 2 2 3 3 3 3 3 2 2 3 3 3 3 3 3 3 3 3 3 3 2 2 2 1 1 2 2 2 2 2 2 2 1 1 1 1
3 3 2 2 3 2 2 3 3 3 3 3 3 3 3 3 3 3 3 4 3 3 2 2 2 3 2 1 1 1 1 0 1 1 2 2 1 1
3 3 2 2 3 3 3 3 3 3 3 3 3 3 3 3 3 3 3 3 3 2 3 2 2 2 2 1 1 1 1 0 2 3 2 1 2 2
2 2 2 3 3 3 3 4 4 4 4 4 4 3 3 3 3 3 3 3 3 3 3 3 3 2 2 2 2 1 1 0 0 1 1 2 1 3
Wind_Direction
253 259 257 264 265 261 259 255 263 289 291 277 271 236 220 218 201 219 214 211 215 216 216 218 222 225 228 229 234 234 232 233 236 237 234 233 232 232
247 256 263 268 272 272 266 272 263 269 286 291 284 282 270 262 223 234 229 221 221 221 220 218 220 224 226 225 227 229 229 230 231 232 232 234 234 232
254 252 257 273 277 276 273 268 264 264 272 286 293 293 281 279 271 252 242 232 224 225 222 219 222 225 226 226 227 227 227 228 228 229 230 233 233 232
263 267 265 265 263 277 284 281 274 264 259 278 285 281 275 266 256 261 263 255 243 231 224 223 225 226 226 226 228 228 227 226 225 227 229 229 230 229
270 272 273 268 262 268 271 277 276 286 270 268 276 274 271 274 279 281 282 275 267 249 229 228 228 227 227 227 229 229 228 225 222 222 225 226 228 227
279 277 275 270 266 274 276 281 285 289 284 277 272 272 268 267 267 276 284 273 271 268 246 237 232 227 226 227 229 229 226 224 221 221 222 224 225 226
292 288 281 281 282 273 284 295 295 286 284 280 278 280 277 288 281 277 279 277 271 265 253 245 229 225 226 229 230 229 225 221 220 219 220 221 222 222
303 297 290 277 288 269 272 275 271 268 274 274 278 283 285 286 286 288 288 284 281 269 261 268 244 234 228 219 219 219 218 218 218 217 217 218 218 218
303 302 303 324 3 322 287 269 267 263 252 263 275 279 284 283 286 286 282 279 276 275 275 270 261 255 248 245 219 213 212 213 215 217 218 217 218 218
299 294 286 316 319 324 308 298 281 277 261 253 261 267 274 272 261 264 269 275 271 262 249 261 261 260 262 240 223 215 211 214 215 215 215 216 215 214
301 311 300 276 305 319 308 307 308 303 294 279 265 264 266 267 264 274 273 273 279 276 256 254 267 282 277 256 228 215 217 221 220 218 216 214 211 208
298 296 351 325 321 326 310 305 300 301 310 304 286 274 265 259 246 234 249 265 274 278 269 263 263 278 285 275 251 221 217 226 221 220 217 211 202 200
314 328 340 335 294 287 284 281 281 295 302 295 289 283 275 269 251 226 224 232 252 262 271 275 276 276 263 280 292 266 218 203 206 216 212 209 203 195
316 323 315 303 294 285 281 279 288 299 294 296 297 296 294 290 284 260 240 237 240 250 256 250 256 258 263 269 272 262 249 221 203 196 188 194 203 207
300 310 305 289 287 279 265 272 281 283 284 289 295 292 288 287 288 282 272 257 253 256 255 232 235 245 240 247 251 253 274 264 219 193 189 187 182 181
296 299 291 286 280 280 286 277 258 264 271 280 286 286 287 289 290 290 289 281 280 286 265 233 227 224 244 250 235 239 243 236 229 212 201 194 186 187
313 299 289 294 295 295 303 297 283 286 293 298 301 308 311 310 302 289 281 293 298 298 298 272 235 215 224 238 233 237 232 238 226 213 201 207 207 197
311 298 311 326 328 329 327 324 329 331 322 314 315 320 319 314 311 307 302 310 307 311 314 307 284 264 271 265 229 237 246 244 238 216 194 188 212 200
308 313 321 326 331 332 328 329 331 334 328 319 316 321 324 326 328 328 334 339 333 330 327 318 303 283 285 289 270 218 238 250 233 216 202 183 196 197
328 314 324 334 330 335 336 336 335 336 337 333 338 340 344 342 338 340 342 342 333 327 332 335 334 318 284 276 283 289 264 241 217 209 183 140 115 134
332 329 338 341 337 342 339 340 342 355 0 351 352 351 347 338 334 333 333 335 326 324 333 330 311 304 291 283 273 297 326 340 143 175 179 164 178 194
319 328 336 335 338 345 348 350 351 359 358 348 345 340 333 331 328 324 324 329 328 334 338 332 339 340 334 320 296 287 295 47 67 77 62 167 186 193
310 323 339 346 350 353 355 354 353 354 354 345 338 331 326 324 325 329 332 334 335 337 345 347 350 350 346 343 326 314 296 217 106 82 29 346 187 179